DECAYED
Showing default

LEMUR-2-NICHOL, 46503 (Decayed)

Orbit data source: Space-Track

LEMUR-2-NICHOL, 46503 was a payload satellite owned by Spire (US) in LEO that was launched on Mon, 28 Sep 2020 UTC via a SOYUZ-2-1B launch vehicle from the Plesetsk Missile And Space Complex (PKMTR). Payload-class satellites include a variety of spacecraft equipped with specific instruments for various scientific and technological missions. These include communications satellites like Starlink; space stations such as the ISS; scientific satellites like the Hubble; Earth observation satellites from companies like Planet Labs, Umbra, and HawkEye 360; GPS; miniature CubeSats for education and research; and military/defense satellites.

Not visible in the next 10 days
Identifier
46503, 2020-068T
Orbit
Decayed
Country
Flag of USUS
Related business
Manufacturer
Spire/Glasgow
Mission
Decayed Commercial Com/MetRO
Bus & Motor
CUBESAT 3U, Unknown motor
Mass
4.6 kg wet, 4.6 kg dry
Launch date (UTC)
2020-09-28 (6 years ago)
Launch vehicle
SOYUZ-2-1B
Launch site
Plesetsk Missile And Space Complex (PKMTR)
Object type
Payload
Rocket body
Debris
Shape & HBR
Box + 2 Pan, 0.5 m
Radar Cross Section
0.124 m², Small (<0.1 m²)

Expand to show TLE details & history
Last TLE update: 1 year ago

TLE from 1 year ago
0 LEMUR-2-NICHOL
1 46503U 20068T   25032.38644730  .06972174  28212-5  14060-2 0  9990
2 46503  97.7829  28.4251 0002996 161.2531 198.8874 16.31426094240624
Epoch: 2025-02-01T09:16Z
TLE epoch observation values (Epoch: 2025-02-01T09:16:29.046Z)
Latitude
Longitude
117.46854°
Altitude
193.8 km
Speed
7.789 km/s
True Right ascension
01h 53m 42s
True Declination
0° 00' 00"
Sunlit
Object was in daylight at epoch
Visualization orbit readout
Latitude
Unknown
Longitude
Unknown
Altitude
Unknown
Speed
Unknown
Apparent Right ascension
Unknown
Apparent Declination
Unknown
Sunlit
N/A
Visualization observer readout
Local Sidereal Time
13:40:45
Azimuth
Unknown
Elevation
Unknown
Doppler factor
Unknown
Orbital elements
Apogee altitude
187.513 km
Perigee altitude
183.58 km
Semi-major axis
6,563.683 km
Eccentricity
0.0003
Inclination
97.7829°
RAAN
28.4251°
Arg. of periapsis
161.2531°
True anomaly
198.87629°
Mean anomaly
198.8874°
Eccentric anomaly
198.88184°
Mean motion
4.08152 °/min
Orbital period
88.2 mins
BSTAR
0.001406
Loading maneuver chart data...
Computing Atmospheric mass density...
Loading historical data...
Loading historical data...
Loading historical data...
Loading historical data...
Loading historical data...
Loading historical data...
Loading historical data...

Documentation

Showing up to 5 results
|